Location: Mount Cross
(36.6390°N, 79.4878°W)
Time: 00:32:45
(UTC+00:00)

Vanguard 2 Rocket - Pass Details

Date: 21 March 2023
Orbit: 554 x 3314 km, 32.9° (Epoch: 08 June)

Event Time Altitude Azimuth Distance (km) Brightness Sun altitude
Rises 05:27:06 0° 276° (W) 5,298 10.9 -53.2°
Enters shadow 05:29:35 - 274° (W) 4,708 10.5 -53.2°
Exits shadow 06:00:06 20° 119° (ESE) 5,458 10.6 -52.3°
Drops below altitude 10° 06:04:09 10° 117° (ESE) 6,262 11.0 -52.1°
Sets 06:08:59 0° 115° (ESE) 7,219 11.4 -51.8°
